Tracking 20093 objects as of 16-Dec-2019
HD Live streaming from Space Station
objects crossing your sky now

SL-8 DEB

Track SL-8 DEB now!
10-day predictions


NORAD ID: 21408
Int'l Code: 1991-009BX
Perigee: 1,457.6 km
Apogee: 1,779.8 km
Inclination: 74.0 °
Period: 118.5 minutes
Semi major axis: 7989 km
RCS: 0.0598 m2 (small)
Launch date: February 12, 1991
Source: Commonwealth of Independent States (former USSR) (CIS)
Launch site: PLESETSK MISSILE AND SPACE COMPLEX (PKMTR)

Note: This is SATELLITE DEBRIS
aabbcc
Your satellite tracking list
Your tracking list is empty




NASA's NSSDC Master Catalog

Two Line Element Set (TLE):
1 21408U 91009BX  19349.84812074 -.00000023 +00000-0 -79850-4 0  9994
2 21408 074.0272 030.4245 0201682 203.6314 332.2118 12.15646545276739
Source of the keplerian elements: AFSPC